| time (UTC) | temp C | wind direction | speed KPH | gust KPH | rain 1hr cm | rain 24hr cm | rain mn cm | humidity % | barometer mb |
| 20260507051525 | 12 | 198 | 0.0 | 9.7 | 0.00 | 0.00 | 0.00 | 79 | 1019.4 |
| 20260507051024 | 12 | 209 | 0.0 | 8.0 | 0.00 | 0.00 | 0.00 | 79 | 1019.3 |
| 20260507050523 | 12 | 289 | 1.6 | 8.0 | 0.00 | 0.00 | 0.00 | 79 | 1019.2 |
| 20260507050029 | 13 | 208 | 0.0 | 6.4 | 0.00 | 0.00 | 0.00 | 80 | 1019.3 |
| 20260507045526 | 13 | 219 | 0.0 | 6.4 | 0.00 | 0.00 | 0.00 | 80 | 1019.2 |
| 20260507045023 | 13 | 197 | 0.0 | 8.0 | 0.00 | 0.00 | 0.00 | 80 | 1019.3 |
| 20260507044525 | 13 | 200 | 1.6 | 8.0 | 0.00 | 0.00 | 0.00 | 80 | 1019.3 |
| 20260507044027 | 13 | 226 | 0.0 | 6.4 | 0.00 | 0.00 | 0.00 | 81 | 1019.3 |
| 20260507043522 | 13 | 246 | 0.0 | 6.4 | 0.00 | 0.00 | 0.00 | 81 | 1019.3 |
| 20260507043023 | 13 | 218 | 0.0 | 6.4 | 0.00 | 0.00 | 0.00 | 81 | 1019.4 |
| 20260507042522 | 13 | 189 | 1.6 | 6.4 | 0.00 | 0.00 | 0.00 | 81 | 1019.4 |
| 20260507042026 | 13 | 189 | 1.6 | 4.8 | 0.00 | 0.00 | 0.00 | 81 | 1019.3 |
| 20260507041521 | 13 | 196 | 0.0 | 4.8 | 0.00 | 0.00 | 0.00 | 81 | 1019.3 |
| 20260507041023 | 13 | 176 | 0.0 | 4.8 | 0.00 | 0.00 | 0.00 | 81 | 1019.3 |
| 20260507040521 | 13 | 176 | 0.0 | 4.8 | 0.00 | 0.00 | 0.00 | 81 | 1019.3 |
| 20260507040019 | 13 | 178 | 0.0 | 4.8 | 0.00 | 0.00 | 0.00 | 82 | 1019.3 |
| 20260507035520 | 13 | 229 | 0.0 | 4.8 | 0.00 | 0.00 | 0.00 | 82 | 1019.2 |
| 20260507035019 | 13 | 218 | 0.0 | 4.8 | 0.00 | 0.00 | 0.00 | 82 | 1019.2 |
| 20260507034521 | 13 | 207 | 0.0 | 6.4 | 0.00 | 0.00 | 0.00 | 82 | 1019.1 |
| 20260507034022 | 13 | 207 | 0.0 | 6.4 | 0.00 | 0.00 | 0.00 | 82 | 1019.1 |
| 20260507033517 | 13 | 206 | 0.0 | 4.8 | 0.00 | 0.00 | 0.00 | 82 | 1019.0 |
| 20260507033021 | 13 | 182 | 0.0 | 4.8 | 0.00 | 0.00 | 0.00 | 82 | 1019.1 |
| 20260507032517 | 13 | 200 | 0.0 | 1.6 | 0.00 | 0.00 | 0.00 | 82 | 1019.1 |
| 20260507032022 | 13 | 200 | 0.0 | 1.6 | 0.00 | 0.00 | 0.00 | 82 | 1019.0 |
| 20260507031516 | 13 | 200 | 0.0 | 0.0 | 0.00 | 0.00 | 0.00 | 82 | 1019.1 |
| 20260507031021 | 13 | 200 | 0.0 | 0.0 | 0.00 | 0.00 | 0.00 | 82 | 1019.0 |
| 20260507030516 | 13 | 200 | 0.0 | 3.2 | 0.00 | 0.00 | 0.00 | 82 | 1019.0 |
| 20260507030016 | 14 | 200 | 0.0 | 4.8 | 0.00 | 0.00 | 0.00 | 81 | 1019.0 |
| 20260507025516 | 14 | 199 | 0.0 | 4.8 | 0.00 | 0.00 | 0.00 | 81 | 1018.9 |
| 20260507025018 | 14 | 217 | 0.0 | 6.4 | 0.00 | 0.00 | 0.00 | 81 | 1018.9 |
| 20260507024516 | 14 | 217 | 0.0 | 6.4 | 0.00 | 0.00 | 0.00 | 81 | 1018.9 |
| 20260507024015 | 14 | 206 | 0.0 | 3.2 | 0.00 | 0.00 | 0.00 | 81 | 1018.8 |
| 20260507023515 | 14 | 204 | 0.0 | 4.8 | 0.00 | 0.00 | 0.00 | 81 | 1018.7 |
| 20260507023015 | 14 | 204 | 0.0 | 6.4 | 0.00 | 0.00 | 0.00 | 81 | 1018.8 |
| 20260507022515 | 14 | 202 | 0.0 | 6.4 | 0.00 | 0.00 | 0.00 | 80 | 1018.8 |
| 20260507022014 | 14 | 200 | 0.0 | 6.4 | 0.00 | 0.00 | 0.00 | 79 | 1018.7 |
| 20260507021515 | 14 | 190 | 1.6 | 6.4 | 0.00 | 0.00 | 0.00 | 80 | 1018.7 |
| 20260507021015 | 14 | 194 | 0.0 | 3.2 | 0.00 | 0.00 | 0.00 | 80 | 1018.7 |
| 20260507020515 | 15 | 217 | 0.0 | 3.2 | 0.00 | 0.00 | 0.00 | 80 | 1018.7 |
| 20260507020017 | 14 | 266 | 0.0 | 6.4 | 0.00 | 0.00 | 0.00 | 80 | 1018.7 |
| 20260507015515 | 15 | 266 | 1.6 | 6.4 | 0.00 | 0.00 | 0.00 | 80 | 1018.7 |
| 20260507015014 | 15 | 192 | 0.0 | 4.8 | 0.00 | 0.00 | 0.00 | 80 | 1018.6 |
| 20260507014514 | 15 | 203 | 0.0 | 4.8 | 0.00 | 0.00 | 0.00 | 80 | 1018.6 |
| 20260507014014 | 15 | 200 | 0.0 | 6.4 | 0.00 | 0.00 | 0.00 | 79 | 1018.7 |
| 20260507013513 | 15 | 200 | 0.0 | 6.4 | 0.00 | 0.00 | 0.00 | 79 | 1018.6 |
| 20260507013016 | 15 | 176 | 0.0 | 0.0 | 0.00 | 0.00 | 0.00 | 79 | 1018.7 |
| 20260507012513 | 15 | 177 | 0.0 | 1.6 | 0.00 | 0.00 | 0.00 | 80 | 1018.8 |
| 20260507012013 | 14 | 197 | 0.0 | 8.0 | 0.00 | 0.00 | 0.00 | 79 | 1018.8 |
| 20260507011526 | 14 | 190 | 1.6 | 8.0 | 0.00 | 0.00 | 0.00 | 79 | 1018.7 |
| 20260507011013 | 15 | 186 | 1.6 | 6.4 | 0.00 | 0.00 | 0.00 | 79 | 1018.8 |
| 20260507010513 | 15 | 197 | 0.0 | 6.4 | 0.00 | 0.00 | 0.00 | 79 | 1018.8 |
| 20260507010013 | 15 | 235 | 1.6 | 6.4 | 0.00 | 0.00 | 0.00 | 79 | 1018.8 |
| 20260507005513 | 15 | 210 | 0.0 | 6.4 | 0.00 | 0.00 | 0.00 | 78 | 1018.8 |
| 20260507005019 | 15 | 191 | 0.0 | 6.4 | 0.00 | 0.00 | 0.00 | 78 | 1018.9 |
| 20260507004512 | 15 | 203 | 0.0 | 4.8 | 0.00 | 0.00 | 0.00 | 78 | 1018.9 |
| 20260507004012 | 15 | 205 | 1.6 | 9.7 | 0.00 | 0.00 | 0.00 | 78 | 1018.8 |
| 20260507003513 | 15 | 207 | 1.6 | 9.7 | 0.00 | 0.00 | 0.00 | 77 | 1018.8 |
| 20260507003012 | 15 | 211 | 1.6 | 6.4 | 0.00 | 0.00 | 0.00 | 77 | 1018.8 |
| 20260507002512 | 15 | 182 | 0.0 | 6.4 | 0.00 | 0.00 | 0.00 | 77 | 1018.9 |
| 20260507002012 | 15 | 194 | 0.0 | 6.4 | 0.00 | 0.00 | 0.00 | 77 | 1018.8 |
| 20260507001514 | 15 | 194 | 1.6 | 6.4 | 0.00 | 0.00 | 0.00 | 77 | 1018.9 |
| 20260507001011 | 15 | 200 | 0.0 | 6.4 | 0.00 | 0.00 | 0.00 | 77 | 1018.8 |
| 20260507000511 | 15 | 201 | 1.6 | 8.0 | 0.00 | 0.00 | 0.00 | 77 | 1018.8 |
| 20260507000011 | 15 | 159 | 1.6 | 8.0 | 0.00 | 0.00 | 0.00 | 77 | 1018.8 |
| 20260506235513 | 15 | 192 | 3.2 | 9.7 | 0.00 | 0.00 | 0.00 | 77 | 1018.8 |
| 20260506235010 | 15 | 163 | 1.6 | 9.7 | 0.00 | 0.00 | 0.00 | 77 | 1018.8 |
| 20260506234510 | 15 | 195 | 0.0 | 4.8 | 0.00 | 0.00 | 0.00 | 77 | 1018.8 |
| 20260506234011 | 15 | 218 | 1.6 | 4.8 | 0.00 | 0.00 | 0.00 | 76 | 1018.9 |
| 20260506233510 | 15 | 208 | 0.0 | 4.8 | 0.00 | 0.00 | 0.00 | 76 | 1018.9 |
| 20260506233010 | 15 | 236 | 0.0 | 6.4 | 0.00 | 0.00 | 0.00 | 77 | 1018.9 |
| 20260506232511 | 15 | 218 | 0.0 | 9.7 | 0.00 | 0.00 | 0.00 | 77 | 1018.9 |
| 20260506232010 | 15 | 192 | 1.6 | 9.7 | 0.00 | 0.00 | 0.00 | 76 | 1019.0 |
| 20260506231510 | 15 | 219 | 0.0 | 8.0 | 0.00 | 0.00 | 0.00 | 76 | 1018.9 |
| 20260506231010 | 15 | 194 | 1.6 | 8.0 | 0.00 | 0.00 | 0.00 | 76 | 1018.9 |
| 20260506230509 | 15 | 155 | 0.0 | 4.8 | 0.00 | 0.00 | 0.00 | 76 | 1018.9 |
| 20260506230009 | 15 | 221 | 0.0 | 4.8 | 0.00 | 0.00 | 0.00 | 76 | 1019.0 |
| 20260506225514 | 15 | 198 | 0.0 | 6.4 | 0.00 | 0.00 | 0.00 | 76 | 1019.0 |
| 20260506225016 | 15 | 181 | 0.0 | 6.4 | 0.00 | 0.00 | 0.00 | 76 | 1019.0 |
| 20260506224509 | 15 | 184 | 1.6 | 6.4 | 0.00 | 0.00 | 0.00 | 75 | 1019.0 |
| 20260506224009 | 15 | 205 | 0.0 | 8.0 | 0.00 | 0.00 | 0.00 | 75 | 1019.0 |
| 20260506223508 | 15 | 287 | 1.6 | 6.4 | 0.00 | 0.00 | 0.00 | 74 | 1019.0 |
| 20260506223015 | 15 | 253 | 0.0 | 6.4 | 0.00 | 0.00 | 0.00 | 74 | 1019.0 |
| 20260506222509 | 15 | 242 | 0.0 | 6.4 | 0.00 | 0.00 | 0.00 | 74 | 1019.0 |
| 20260506222011 | 15 | 199 | 0.0 | 8.0 | 0.00 | 0.00 | 0.00 | 74 | 1019.0 |
| 20260506221509 | 15 | 167 | 1.6 | 9.7 | 0.00 | 0.00 | 0.00 | 74 | 1019.0 |
| 20260506221010 | 15 | 253 | 0.0 | 8.0 | 0.00 | 0.00 | 0.00 | 74 | 1019.1 |
| 20260506220508 | 15 | 240 | 0.0 | 8.0 | 0.00 | 0.00 | 0.00 | 73 | 1019.1 |
| 20260506220008 | 15 | 68 | 0.0 | 8.0 | 0.00 | 0.00 | 0.00 | 73 | 1019.1 |
| 20260506215507 | 15 | 139 | 1.6 | 6.4 | 0.00 | 0.00 | 0.00 | 73 | 1019.2 |
| 20260506215007 | 15 | 233 | 1.6 | 8.0 | 0.00 | 0.00 | 0.00 | 73 | 1019.3 |
| 20260506214507 | 15 | 250 | 1.6 | 8.0 | 0.00 | 0.00 | 0.00 | 73 | 1019.1 |
| 20260506214007 | 15 | 232 | 3.2 | 6.4 | 0.00 | 0.00 | 0.00 | 73 | 1019.1 |
| 20260506213507 | 15 | 182 | 1.6 | 6.4 | 0.00 | 0.00 | 0.00 | 72 | 1019.1 |
| 20260506213007 | 15 | 217 | 0.0 | 6.4 | 0.00 | 0.00 | 0.00 | 72 | 1019.2 |
| 20260506212507 | 15 | 242 | 0.0 | 4.8 | 0.00 | 0.00 | 0.00 | 73 | 1019.1 |
| 20260506212010 | 15 | 242 | 0.0 | 8.0 | 0.00 | 0.00 | 0.00 | 72 | 1019.2 |
| 20260506211507 | 16 | 201 | 0.0 | 8.0 | 0.00 | 0.00 | 0.00 | 72 | 1019.2 |
| 20260506211006 | 16 | 232 | 1.6 | 8.0 | 0.00 | 0.00 | 0.00 | 71 | 1019.2 |
| 20260506210506 | 16 | 202 | 1.6 | 8.0 | 0.00 | 0.00 | 0.00 | 70 | 1019.2 |
| 20260506210009 | 16 | 238 | 1.6 | 8.0 | 0.00 | 0.00 | 0.00 | 70 | 1019.1 |
| 20260506205505 | 16 | 219 | 0.0 | 4.8 | 0.00 | 0.00 | 0.00 | 70 | 1019.1 |
| 20260506205003 | 16 | 273 | 0.0 | 4.8 | 0.00 | 0.00 | 0.00 | 71 | 1019.1 |
| 20260506204502 | 16 | 228 | 0.0 | 4.8 | 0.00 | 0.00 | 0.00 | 71 | 1019.1 |
| 20260506204001 | 16 | 257 | 0.0 | 6.4 | 0.00 | 0.00 | 0.00 | 72 | 1019.1 |
| 20260506203501 | 16 | 278 | 1.6 | 6.4 | 0.00 | 0.00 | 0.00 | 71 | 1019.1 |
| 20260506203001 | 16 | 243 | 1.6 | 6.4 | 0.00 | 0.00 | 0.00 | 72 | 1019.1 |
| 20260506202600 | 16 | 244 | 0.0 | 4.8 | 0.00 | 0.00 | 0.00 | 73 | 1019.1 |
| 20260506202059 | 15 | 184 | 0.0 | 8.0 | 0.00 | 0.00 | 0.00 | 73 | 1019.0 |
| 20260506201559 | 15 | 211 | 0.0 | 11.3 | 0.00 | 0.00 | 0.00 | 74 | 1019.0 |
| 20260506201058 | 15 | 203 | 1.6 | 11.3 | 0.00 | 0.00 | 0.00 | 74 | 1019.1 |
| 20260506200558 | 15 | 251 | 0.0 | 4.8 | 0.00 | 0.00 | 0.00 | 74 | 1019.1 |
| 20260506200059 | 15 | 205 | 0.0 | 11.3 | 0.00 | 0.00 | 0.00 | 76 | 1019.1 |
| 20260506195556 | 15 | 242 | 0.0 | 8.0 | 0.00 | 0.00 | 0.00 | 76 | 1019.0 |
| 20260506195055 | 15 | 209 | 1.6 | 12.9 | 0.00 | 0.00 | 0.00 | 77 | 1019.0 |
| 20260506194556 | 15 | 227 | 1.6 | 12.9 | 0.00 | 0.00 | 0.00 | 78 | 1018.9 |
| 20260506194053 | 15 | 168 | 3.2 | 11.3 | 0.00 | 0.00 | 0.00 | 77 | 1018.9 |
| 20260506193558 | 15 | 229 | 3.2 | 11.3 | 0.00 | 0.00 | 0.00 | 77 | 1018.9 |
| 20260506193053 | 15 | 228 | 1.6 | 8.0 | 0.00 | 0.00 | 0.00 | 78 | 1018.9 |
| 20260506192553 | 14 | 218 | 1.6 | 12.9 | 0.00 | 0.00 | 0.00 | 78 | 1018.9 |
| 20260506192053 | 15 | 216 | 1.6 | 9.7 | 0.00 | 0.00 | 0.00 | 78 | 1018.9 |
| 20260506191553 | 15 | 244 | 1.6 | 8.0 | 0.00 | 0.00 | 0.00 | 78 | 1018.9 |
| 20260506191054 | 15 | 202 | 1.6 | 11.3 | 0.00 | 0.00 | 0.00 | 78 | 1018.9 |
| 20260506190554 | 15 | 246 | 1.6 | 11.3 | 0.00 | 0.00 | 0.00 | 78 | 1018.8 |
| 20260506190054 | 15 | 252 | 0.0 | 8.0 | 0.00 | 0.00 | 0.00 | 80 | 1018.8 |
| 20260506185550 | 14 | 219 | 0.0 | 8.0 | 0.00 | 0.00 | 0.00 | 80 | 1018.8 |
| 20260506185050 | 14 | 218 | 1.6 | 11.3 | 0.00 | 0.00 | 0.00 | 80 | 1018.9 |
| 20260506185020 | 14 | 211 | 1.6 | 11.3 | 0.00 | 0.00 | 0.00 | 80 | 1018.9 |
| 20260506184552 | 14 | 227 | 1.6 | 11.3 | 0.00 | 0.00 | 0.00 | 80 | 1018.8 |
| 20260506184050 | 14 | 194 | 3.2 | 9.7 | 0.00 | 0.00 | 0.00 | 80 | 1018.8 |
| 20260506183551 | 14 | 257 | 1.6 | 9.7 | 0.00 | 0.00 | 0.00 | 80 | 1018.8 |
| 20260506183050 | 14 | 213 | 0.0 | 6.4 | 0.00 | 0.00 | 0.00 | 81 | 1018.8 |
| 20260506182547 | 14 | 211 | 1.6 | 9.7 | 0.00 | 0.00 | 0.00 | 81 | 1018.8 |
| 20260506182049 | 14 | 178 | 1.6 | 9.7 | 0.00 | 0.00 | 0.00 | 81 | 1018.8 |
| 20260506181548 | 14 | 174 | 1.6 | 9.7 | 0.00 | 0.00 | 0.00 | 82 | 1018.8 |
| 20260506181047 | 14 | 217 | 1.6 | 9.7 | 0.00 | 0.00 | 0.00 | 81 | 1018.8 |
| 20260506180547 | 14 | 223 | 0.0 | 8.0 | 0.00 | 0.00 | 0.00 | 82 | 1018.9 |
| 20260506180048 | 14 | 262 | 0.0 | 4.8 | 0.00 | 0.00 | 0.00 | 81 | 1018.8 |
| 20260506175545 | 13 | 281 | 1.6 | 11.3 | 0.00 | 0.00 | 0.00 | 81 | 1018.8 |
| 20260506175044 | 13 | 227 | 3.2 | 11.3 | 0.00 | 0.00 | 0.00 | 80 | 1018.5 |
| 20260506174543 | 13 | 187 | 0.0 | 11.3 | 0.00 | 0.00 | 0.00 | 79 | 1018.3 |
| 20260506174043 | 13 | 214 | 1.6 | 11.3 | 0.00 | 0.00 | 0.00 | 79 | 1018.3 |
| 20260506173543 | 13 | 219 | 0.0 | 9.7 | 0.00 | 0.00 | 0.00 | 76 | 1018.4 |
| 20260506173120 | 13 | 178 | 1.6 | 9.7 | 0.00 | 0.00 | 0.00 | 76 | 1018.3 |
| 20260506172543 | 13 | 242 | 0.0 | 9.7 | 0.00 | 0.00 | 0.00 | 76 | 1018.6 |
| 20260506172043 | 12 | 231 | 1.6 | 12.9 | 0.00 | 0.00 | 0.00 | 75 | 1018.6 |
| 20260506171543 | 12 | 210 | 1.6 | 11.3 | 0.00 | 0.00 | 0.00 | 75 | 1018.8 |
| 20260506171043 | 12 | 200 | 0.0 | 9.7 | 0.00 | 0.00 | 0.00 | 76 | 1018.6 |
| 20260506170541 | 13 | 205 | 0.0 | 6.4 | 0.00 | 0.00 | 0.00 | 75 | 1018.6 |
| 20260506170042 | 12 | 227 | 0.0 | 4.8 | 0.00 | 0.00 | 0.00 | 76 | 1018.7 |
| 20260506165540 | 12 | 214 | 1.6 | 8.0 | 0.00 | 0.00 | 0.00 | 77 | 1018.7 |
| 20260506165041 | 12 | 252 | 1.6 | 8.0 | 0.00 | 0.00 | 0.00 | 76 | 1018.6 |
| 20260506164541 | 12 | 184 | 0.0 | 8.0 | 0.00 | 0.00 | 0.00 | 75 | 1018.6 |
| 20260506164040 | 12 | 252 | 3.2 | 8.0 | 0.00 | 0.00 | 0.00 | 75 | 1018.5 |
| 20260506163540 | 12 | 197 | 0.0 | 8.0 | 0.00 | 0.00 | 0.00 | 74 | 1018.5 |
| 20260506163042 | 12 | 211 | 1.6 | 8.0 | 0.00 | 0.00 | 0.00 | 74 | 1018.6 |
| 20260506162539 | 12 | 270 | 3.2 | 6.4 | 0.00 | 0.00 | 0.00 | 72 | 1018.6 |
| 20260506162039 | 12 | 166 | 0.0 | 9.7 | 0.00 | 0.00 | 0.00 | 71 | 1018.4 |
| 20260506161540 | 12 | 216 | 0.0 | 9.7 | 0.00 | 0.00 | 0.00 | 70 | 1018.3 |
| 20260506161038 | 12 | 230 | 0.0 | 11.3 | 0.00 | 0.00 | 0.00 | 67 | 1018.2 |
| 20260506160539 | 12 | 236 | 1.6 | 11.3 | 0.00 | 0.00 | 0.00 | 66 | 1018.2 |
| 20260506160038 | 12 | 237 | 3.2 | 9.7 | 0.00 | 0.00 | 0.00 | 62 | 1017.9 |
| 20260506155538 | 12 | 169 | 1.6 | 9.7 | 0.00 | 0.00 | 0.00 | 61 | 1017.9 |
| 20260506155038 | 12 | 179 | 0.0 | 9.7 | 0.00 | 0.00 | 0.00 | 59 | 1017.9 |
| 20260506154540 | 12 | 196 | 1.6 | 9.7 | 0.00 | 0.00 | 0.00 | 61 | 1017.9 |
| 20260506154038 | 12 | 217 | 1.6 | 8.0 | 0.00 | 0.00 | 0.00 | 60 | 1017.9 |
| 20260506153538 | 12 | 195 | 1.6 | 8.0 | 0.00 | 0.00 | 0.00 | 60 | 1018.1 |
| 20260506153043 | 12 | 205 | 1.6 | 8.0 | 0.00 | 0.00 | 0.00 | 59 | 1018.1 |
| 20260506152537 | 12 | 191 | 0.0 | 11.3 | 0.00 | 0.00 | 0.00 | 60 | 1018.2 |
| 20260506152037 | 12 | 127 | 1.6 | 11.3 | 0.00 | 0.00 | 0.00 | 60 | 1018.3 |
| 20260506151537 | 12 | 184 | 0.0 | 0.0 | 0.00 | 0.00 | 0.00 | 59 | 1018.4 |
| 20260506151036 | 12 | 184 | 0.0 | 3.2 | 0.00 | 0.00 | 0.00 | 58 | 1018.4 |
| 20260506150536 | 12 | 184 | 1.6 | 3.2 | 0.00 | 0.00 | 0.00 | 59 | 1018.4 |
| 20260506150035 | 12 | 211 | 0.0 | 8.0 | 0.00 | 0.00 | 0.00 | 59 | 1018.2 |
| 20260506145535 | 12 | 187 | 1.6 | 8.0 | 0.00 | 0.00 | 0.00 | 60 | 1018.0 |
| 20260506145037 | 12 | 219 | 1.6 | 11.3 | 0.00 | 0.00 | 0.00 | 60 | 1017.8 |
| 20260506144538 | 12 | 239 | 3.2 | 11.3 | 0.00 | 0.00 | 0.00 | 60 | 1017.7 |
| 20260506144034 | 12 | 196 | 0.0 | 6.4 | 0.00 | 0.00 | 0.00 | 60 | 1018.0 |
| 20260506143534 | 11 | 236 | 0.0 | 8.0 | 0.00 | 0.00 | 0.00 | 60 | 1018.0 |
| 20260506143037 | 11 | 192 | 0.0 | 8.0 | 0.00 | 0.00 | 0.00 | 62 | 1018.0 |
| 20260506142532 | 11 | 261 | 0.0 | 6.4 | 0.00 | 0.00 | 0.00 | 62 | 1018.1 |
| 20260506142032 | 11 | 178 | 0.0 | 6.4 | 0.00 | 0.00 | 0.00 | 62 | 1018.1 |
| 20260506141533 | 11 | 211 | 0.0 | 0.0 | 0.00 | 0.00 | 0.00 | 63 | 1017.9 |
| 20260506141031 | 11 | 211 | 0.0 | 0.0 | 0.00 | 0.00 | 0.00 | 64 | 1017.9 |
| 20260506140531 | 11 | 214 | 0.0 | 0.0 | 0.00 | 0.00 | 0.00 | 65 | 1017.9 |
| 20260506140029 | 11 | 225 | 0.0 | 4.8 | 0.00 | 0.00 | 0.00 | 66 | 1017.8 |
| 20260506135530 | 11 | 198 | 0.0 | 6.4 | 0.00 | 0.00 | 0.00 | 67 | 1017.8 |
| 20260506135029 | 11 | 188 | 0.0 | 6.4 | 0.00 | 0.00 | 0.00 | 68 | 1017.8 |
| 20260506134528 | 11 | 143 | 0.0 | 4.8 | 0.00 | 0.00 | 0.00 | 69 | 1017.8 |
| 20260506134032 | 11 | 211 | 0.0 | 4.8 | 0.00 | 0.00 | 0.00 | 69 | 1017.9 |
| 20260506133528 | 11 | 236 | 0.0 | 0.0 | 0.00 | 0.00 | 0.00 | 70 | 1017.8 |
| 20260506133028 | 11 | 236 | 0.0 | 3.2 | 0.00 | 0.00 | 0.00 | 70 | 1017.6 |
| 20260506132532 | 11 | 236 | 0.0 | 6.4 | 0.00 | 0.00 | 0.00 | 70 | 1017.6 |
| 20260506132029 | 12 | 246 | 0.0 | 3.2 | 0.00 | 0.00 | 0.00 | 71 | 1017.7 |
| 20260506131532 | 12 | 246 | 0.0 | 6.4 | 0.00 | 0.00 | 0.00 | 71 | 1017.6 |
| 20260506131026 | 12 | 211 | 0.0 | 3.2 | 0.00 | 0.00 | 0.00 | 71 | 1017.6 |
| 20260506130526 | 12 | 216 | 0.0 | 0.0 | 0.00 | 0.00 | 0.00 | 71 | 1017.6 |
| 20260506130026 | 12 | 215 | 0.0 | 9.7 | 0.00 | 0.00 | 0.00 | 71 | 1017.6 |
| 20260506125525 | 12 | 215 | 0.0 | 11.3 | 0.00 | 0.00 | 0.00 | 72 | 1017.4 |
| 20260506125026 | 12 | 203 | 0.0 | 11.3 | 0.00 | 0.00 | 0.00 | 72 | 1017.0 |
| 20260506124522 | 12 | 191 | 0.0 | 4.8 | 0.00 | 0.00 | 0.00 | 72 | 1017.1 |
| 20260506124023 | 12 | 187 | 0.0 | 8.0 | 0.00 | 0.00 | 0.00 | 72 | 1017.3 |
| 20260506123523 | 12 | 238 | 1.6 | 8.0 | 0.00 | 0.00 | 0.00 | 72 | 1017.3 |
| 20260506123021 | 12 | 197 | 0.0 | 4.8 | 0.00 | 0.00 | 0.00 | 72 | 1017.3 |
| 20260506122521 | 12 | 211 | 0.0 | 0.0 | 0.00 | 0.00 | 0.00 | 72 | 1017.2 |
| 20260506122020 | 12 | 225 | 0.0 | 3.2 | 0.00 | 0.00 | 0.00 | 72 | 1017.1 |
| 20260506121521 | 12 | 180 | 0.0 | 3.2 | 0.00 | 0.00 | 0.00 | 73 | 1017.1 |
| 20260506121020 | 12 | 199 | 0.0 | 4.8 | 0.00 | 0.00 | 0.00 | 73 | 1017.1 |
| 20260506120522 | 12 | 227 | 0.0 | 6.4 | 0.00 | 0.00 | 0.00 | 73 | 1017.0 |
| 20260506120021 | 12 | 216 | 0.0 | 6.4 | 0.00 | 0.00 | 0.00 | 73 | 1016.9 |
| 20260506115519 | 12 | 204 | 0.0 | 0.0 | 0.00 | 0.00 | 0.00 | 73 | 1016.9 |
| 20260506115017 | 12 | 196 | 0.0 | 4.8 | 0.00 | 0.00 | 0.00 | 73 | 1017.0 |
| 20260506114518 | 12 | 225 | 0.0 | 4.8 | 0.00 | 0.00 | 0.00 | 73 | 1016.9 |
| 20260506114017 | 12 | 150 | 0.0 | 6.4 | 0.00 | 0.00 | 0.00 | 73 | 1016.9 |
| 20260506113517 | 12 | 194 | 0.0 | 6.4 | 0.00 | 0.00 | 0.00 | 73 | 1016.9 |
| 20260506113016 | 12 | 186 | 0.0 | 4.8 | 0.00 | 0.00 | 0.00 | 73 | 1016.8 |
| 20260506112516 | 12 | 177 | 0.0 | 4.8 | 0.00 | 0.00 | 0.00 | 73 | 1016.6 |
| 20260506112015 | 12 | 192 | 0.0 | 4.8 | 0.00 | 0.00 | 0.00 | 73 | 1016.7 |
| 20260506111515 | 12 | 164 | 0.0 | 3.2 | 0.00 | 0.00 | 0.00 | 73 | 1016.6 |
| 20260506111015 | 12 | 158 | 0.0 | 0.0 | 0.00 | 0.00 | 0.00 | 73 | 1016.7 |
| 20260506110515 | 12 | 198 | 0.0 | 3.2 | 0.00 | 0.00 | 0.00 | 73 | 1016.7 |
| 20260506110017 | 12 | 203 | 0.0 | 3.2 | 0.00 | 0.00 | 0.00 | 73 | 1016.6 |
| 20260506105513 | 12 | 197 | 0.0 | 4.8 | 0.00 | 0.00 | 0.00 | 73 | 1016.6 |
| 20260506105019 | 12 | 192 | 0.0 | 4.8 | 0.00 | 0.00 | 0.00 | 73 | 1016.5 |
| 20260506104513 | 12 | 196 | 0.0 | 4.8 | 0.00 | 0.00 | 0.00 | 73 | 1016.5 |
| 20260506104012 | 12 | 215 | 0.0 | 4.8 | 0.00 | 0.00 | 0.00 | 73 | 1016.5 |
| 20260506103514 | 12 | 188 | 0.0 | 0.0 | 0.00 | 0.00 | 0.00 | 73 | 1016.4 |
| 20260506103012 | 12 | 179 | 0.0 | 4.8 | 0.00 | 0.00 | 0.00 | 73 | 1016.5 |
| 20260506102512 | 12 | 186 | 0.0 | 6.4 | 0.00 | 0.00 | 0.00 | 73 | 1016.4 |
| 20260506102011 | 12 | 189 | 1.6 | 6.4 | 0.00 | 0.00 | 0.00 | 73 | 1016.4 |
| 20260506101521 | 12 | 222 | 0.0 | 12.9 | 0.00 | 0.00 | 0.00 | 74 | 1016.4 |
| 20260506101010 | 12 | 207 | 0.0 | 12.9 | 0.00 | 0.00 | 0.00 | 74 | 1016.4 |
| 20260506100512 | 12 | 215 | 0.0 | 8.0 | 0.00 | 0.00 | 0.00 | 74 | 1016.4 |
| 20260506100009 | 12 | 244 | 1.6 | 8.0 | 0.00 | 0.00 | 0.00 | 74 | 1016.3 |
| 20260506095509 | 12 | 227 | 0.0 | 6.4 | 0.00 | 0.00 | 0.00 | 74 | 1016.3 |
| 20260506095008 | 12 | 190 | 0.0 | 9.7 | 0.00 | 0.00 | 0.00 | 74 | 1016.3 |
| 20260506094519 | 12 | 186 | 0.0 | 9.7 | 0.00 | 0.00 | 0.00 | 74 | 1016.1 |
| 20260506094008 | 12 | 188 | 0.0 | 11.3 | 0.00 | 0.00 | 0.00 | 74 | 1016.1 |
| 20260506093506 | 12 | 230 | 1.6 | 11.3 | 0.00 | 0.00 | 0.00 | 74 | 1016.0 |
| 20260506093013 | 12 | 195 | 1.6 | 9.7 | 0.00 | 0.00 | 0.00 | 74 | 1016.0 |
| 20260506092506 | 12 | 205 | 0.0 | 8.0 | 0.00 | 0.00 | 0.00 | 75 | 1016.0 |
| 20260506092007 | 12 | 223 | 1.6 | 9.7 | 0.00 | 0.00 | 0.00 | 75 | 1015.9 |
| 20260506091505 | 12 | 219 | 0.0 | 6.4 | 0.00 | 0.00 | 0.00 | 75 | 1015.8 |
| 20260506091005 | 12 | 192 | 0.0 | 11.3 | 0.00 | 0.00 | 0.00 | 75 | 1015.8 |
| 20260506090504 | 12 | 190 | 1.6 | 4.8 | 0.00 | 0.00 | 0.00 | 75 | 1015.8 |
| 20260506090003 | 12 | 207 | 0.0 | 4.8 | 0.00 | 0.00 | 0.00 | 76 | 1015.8 |
| 20260506085502 | 12 | 194 | 0.0 | 4.8 | 0.00 | 0.00 | 0.00 | 76 | 1015.8 |
| 20260506085002 | 12 | 192 | 0.0 | 8.0 | 0.00 | 0.00 | 0.00 | 76 | 1015.7 |
| 20260506084502 | 12 | 165 | 1.6 | 8.0 | 0.00 | 0.00 | 0.00 | 76 | 1015.7 |
| 20260506084100 | 12 | 200 | 0.0 | 4.8 | 0.00 | 0.00 | 0.00 | 76 | 1015.7 |
| 20260506083558 | 12 | 201 | 0.0 | 4.8 | 0.00 | 0.00 | 0.00 | 76 | 1015.5 |
| 20260506083058 | 12 | 207 | 0.0 | 3.2 | 0.00 | 0.00 | 0.00 | 76 | 1015.4 |
| 20260506082556 | 12 | 200 | 0.0 | 3.2 | 0.00 | 0.00 | 0.00 | 76 | 1015.4 |
| 20260506082057 | 12 | 195 | 0.0 | 8.0 | 0.00 | 0.00 | 0.00 | 76 | 1015.3 |
| 20260506081600 | 12 | 193 | 1.6 | 8.0 | 0.00 | 0.00 | 0.00 | 76 | 1015.4 |
| 20260506081055 | 12 | 188 | 0.0 | 8.0 | 0.00 | 0.00 | 0.00 | 76 | 1015.3 |
| 20260506080555 | 12 | 192 | 1.6 | 8.0 | 0.00 | 0.00 | 0.00 | 77 | 1015.3 |
| 20260506073051 | 13 | 198 | 1.6 | 8.0 | 0.00 | 0.00 | 0.00 | 78 | 1015.0 |
| 20260506072550 | 13 | 174 | 0.0 | 6.4 | 0.00 | 0.00 | 0.00 | 78 | 1015.0 |
| 20260506072048 | 13 | 194 | 0.0 | 8.0 | 0.00 | 0.00 | 0.00 | 78 | 1015.0 |
| 20260506071547 | 13 | 166 | 1.6 | 8.0 | 0.00 | 0.00 | 0.00 | 78 | 1015.0 |
| 20260506071048 | 13 | 209 | 1.6 | 6.4 | 0.00 | 0.00 | 0.00 | 79 | 1015.0 |
| 20260506070546 | 13 | 187 | 1.6 | 6.4 | 0.00 | 0.00 | 0.00 | 79 | 1015.0 |
| 20260506062044 | 14 | 186 | 0.0 | 0.0 | 0.00 | 0.00 | 0.00 | 82 | 1014.7 |
| 20260506061544 | 14 | 186 | 0.0 | 1.6 | 0.00 | 0.00 | 0.00 | 82 | 1014.7 |
| 20260506061044 | 14 | 186 | 0.0 | 8.0 | 0.00 | 0.00 | 0.00 | 82 | 1014.7 |
| 20260506060543 | 15 | 218 | 0.0 | 3.2 | 0.00 | 0.00 | 0.00 | 82 | 1014.6 |